KO5MO-11 Weather Reports


Display with metric or nautical units.
time (UTC)temp
F
wind
direction
speed
MPH
gust
MPH
rain 1hr
in
rain 24hr
in
rain mn
in
humidity
%
barometer
mb
20260502130432 76 0.0 0.0 0.00 0.00 0.00 37 1010.9
20260502123432 79 0.0 0.0 0.00 0.00 0.00 34 1010.5
20260502122432 75 0.0 0.0 0.00 0.00 0.00 35 1010.4
20260502121432 76 0.0 0.0 0.00 0.00 0.00 35 1010.3
20260502120432 79 0.0 0.0 0.00 0.00 0.00 33 1010.2
20260502115432 77 0.0 0.0 0.00 0.00 0.00 36 1010.2
20260502114432 76 0.0 0.0 0.00 0.00 0.00 36 1010.1
20260502113432 76 0.0 0.0 0.00 0.00 0.00 36 1010.1
20260502112432 79 0.0 0.0 0.00 0.00 0.00 33 1010.1
20260502111432 76 0.0 0.0 0.00 0.00 0.00 37 1010.1
20260502110432 75 0.0 0.0 0.00 0.00 0.00 36 1010.0
20260502105432 76 0.0 0.0 0.00 0.00 0.00 35 1010.0
20260502104432 78 0.0 0.0 0.00 0.00 0.00 34 1009.9
20260502103432 76 0.0 0.0 0.00 0.00 0.00 37 1009.8
20260502102432 75 0.0 0.0 0.00 0.00 0.00 35 1009.8
20260502101432 77 0.0 0.0 0.00 0.00 0.00 36 1009.7
20260502100432 79 0.0 0.0 0.00 0.00 0.00 33 1009.7
20260502091432 76 0.0 0.0 0.00 0.00 0.00 36 1009.4
20260502090432 77 0.0 0.0 0.00 0.00 0.00 36 1009.3
20260502071432 79 0.0 0.0 0.00 0.00 0.00 34 1008.7
20260502070432 77 0.0 0.0 0.00 0.00 0.00 39 1008.7
20260502065432 75 0.0 0.0 0.00 0.00 0.00 36 1008.6
20260502064432 76 0.0 0.0 0.00 0.00 0.00 35 1008.7
20260502063432 78 0.0 0.0 0.00 0.00 0.00 37 1008.6
20260502062432 75 0.0 0.0 0.00 0.00 0.00 36 1008.6
20260502061432 79 0.0 0.0 0.00 0.00 0.00 34 1008.6
20260502060432 77 0.0 0.0 0.00 0.00 0.00 39 1008.5
20260502055432 75 0.0 0.0 0.00 0.00 0.00 36 1008.4
20260502054432 79 0.0 0.0 0.00 0.00 0.00 35 1008.3
20260502053432 77 0.0 0.0 0.00 0.00 0.00 38 1008.3
20260502052432 74 0.0 0.0 0.00 0.00 0.00 36 1008.2
20260502051432 76 0.0 0.0 0.00 0.00 0.00 36 1008.2
20260502050432 79 0.0 0.0 0.00 0.00 0.00 36 1008.1
20260502045432 76 0.0 0.0 0.00 0.00 0.00 41 1008.1
20260502044432 74 0.0 0.0 0.00 0.00 0.00 37 1008.2
20260502043432 76 0.0 0.0 0.00 0.00 0.00 36 1008.1
20260502042432 79 0.0 0.0 0.00 0.00 0.00 37 1008.0
20260502041432 75 0.0 0.0 0.00 0.00 0.00 41 1008.0
20260502040432 75 0.0 0.0 0.00 0.00 0.00 37 1007.9
20260502035432 76 0.0 0.0 0.00 0.00 0.00 36 1007.8
20260502034432 78 0.0 0.0 0.00 0.00 0.00 38 1007.7
20260502033432 75 0.0 0.0 0.00 0.00 0.00 40 1007.5
20260502032432 75 0.0 0.0 0.00 0.00 0.00 37 1007.4
20260502031432 76 0.0 0.0 0.00 0.00 0.00 36 1007.2
20260502030432 79 0.0 0.0 0.00 0.00 0.00 37 1007.2
20260502025432 75 0.0 0.0 0.00 0.00 0.00 41 1007.1
20260502024432 74 0.0 0.0 0.00 0.00 0.00 38 1007.0
20260502023432 76 0.0 0.0 0.00 0.00 0.00 37 1006.8
20260502022432 79 0.0 0.0 0.00 0.00 0.00 37 1006.8
20260502021432 76 0.0 0.0 0.00 0.00 0.00 43 1006.7
20260502020432 74 0.0 0.0 0.00 0.00 0.00 37 1006.6
20260502015432 75 0.0 0.0 0.00 0.00 0.00 37 1006.6
20260502014432 77 0.0 0.0 0.00 0.00 0.00 37 1006.5
20260502013432 78 0.0 0.0 0.00 0.00 0.00 40 1006.6
20260502012432 75 0.0 0.0 0.00 0.00 0.00 41 1006.6
20260502011432 75 0.0 0.0 0.00 0.00 0.00 38 1006.6
20260502010432 75 0.0 0.0 0.00 0.00 0.00 38 1006.6
20260502005432 76 0.0 0.0 0.00 0.00 0.00 37 1006.7
20260502004432 78 0.0 0.0 0.00 0.00 0.00 37 1006.6
20260502003432 77 0.0 0.0 0.00 0.00 0.00 45 1006.7
20260502002432 74 0.0 0.0 0.00 0.00 0.00 38 1006.6
20260502001432 75 0.0 0.0 0.00 0.00 0.00 38 1006.7
20260502000432 76 0.0 0.0 0.00 0.00 0.00 38 1006.7
20260501235432 78 0.0 0.0 0.00 0.00 0.00 37 1006.8
20260501234432 77 0.0 0.0 0.00 0.00 0.00 44 1006.8
20260501233432 74 0.0 0.0 0.00 0.00 0.00 38 1006.8
20260501232432 75 0.0 0.0 0.00 0.00 0.00 38 1006.8
20260501231432 75 0.0 0.0 0.00 0.00 0.00 37 1006.8
20260501230432 76 0.0 0.0 0.00 0.00 0.00 37 1006.9
20260501225432 79 0.0 0.0 0.00 0.00 0.00 37 1007.1
20260501224432 77 0.0 0.0 0.00 0.00 0.00 45 1007.2
20260501223432 75 0.0 0.0 0.00 0.00 0.00 38 1007.3
20260501222432 75 0.0 0.0 0.00 0.00 0.00 38 1007.4
20260501221432 75 0.0 0.0 0.00 0.00 0.00 38 1007.6
20260501220432 76 0.0 0.0 0.00 0.00 0.00 38 1007.7
20260501215432 79 0.0 0.0 0.00 0.00 0.00 38 1007.8
20260501214432 76 0.0 0.0 0.00 0.00 0.00 44 1007.9
20260501213432 75 0.0 0.0 0.00 0.00 0.00 38 1008.2
20260501212432 75 0.0 0.0 0.00 0.00 0.00 37 1008.2
20260501211432 76 0.0 0.0 0.00 0.00 0.00 37 1008.3
20260501210432 78 0.0 0.0 0.00 0.00 0.00 37 1008.5
20260501205432 77 0.0 0.0 0.00 0.00 0.00 43 1008.6
20260501204432 75 0.0 0.0 0.00 0.00 0.00 38 1008.7
20260501203432 75 0.0 0.0 0.00 0.00 0.00 37 1008.8
20260501202432 76 0.0 0.0 0.00 0.00 0.00 37 1008.9
20260501201432 78 0.0 0.0 0.00 0.00 0.00 36 1008.9
20260501201414 78 0.0 0.0 0.00 0.00 0.00 36 1008.9
20260501201338 78 0.0 0.0 0.00 0.00 0.00 36 1008.9
20260501185055 76 0.0 0.0 0.00 0.00 0.00 36 1010.0
20260501184055 80 0.0 0.0 0.00 0.00 0.00 35 1010.2
20260501183056 77 0.0 0.0 0.00 0.00 0.00 42 1010.4
20260501182055 75 0.0 0.0 0.00 0.00 0.00 36 1010.5
20260501181055 76 0.0 0.0 0.00 0.00 0.00 36 1010.6
20260501180055 79 0.0 0.0 0.00 0.00 0.00 35 1010.8
20260501175055 77 0.0 0.0 0.00 0.00 0.00 41 1010.9
20260501174055 75 0.0 0.0 0.00 0.00 0.00 36 1010.9
20260501173055 76 0.0 0.0 0.00 0.00 0.00 36 1011.0
20260501172055 80 0.0 0.0 0.00 0.00 0.00 35 1011.0
20260501171055 77 0.0 0.0 0.00 0.00 0.00 41 1011.0
20260501170055 74 0.0 0.0 0.00 0.00 0.00 36 1011.0
20260501165055 75 0.0 0.0 0.00 0.00 0.00 36 1011.0
20260501164055 80 0.0 0.0 0.00 0.00 0.00 34 1011.1
20260501163055 78 0.0 0.0 0.00 0.00 0.00 38 1011.1
20260501162055 74 0.0 0.0 0.00 0.00 0.00 36 1010.9
20260501161055 75 0.0 0.0 0.00 0.00 0.00 36 1010.9
20260501160055 80 0.0 0.0 0.00 0.00 0.00 34 1010.9
20260501155055 77 0.0 0.0 0.00 0.00 0.00 39 1010.9
20260501154055 74 0.0 0.0 0.00 0.00 0.00 36 1010.8
20260501153055 76 0.0 0.0 0.00 0.00 0.00 36 1010.8
20260501152055 76 0.0 0.0 0.00 0.00 0.00 35 1010.6
20260501151055 80 0.0 0.0 0.00 0.00 0.00 34 1010.6
20260501150055 76 0.0 0.0 0.00 0.00 0.00 38 1010.4
20260501145055 76 0.0 0.0 0.00 0.00 0.00 38 1010.3
20260501144055 77 0.0 0.0 0.00 0.00 0.00 37 1010.2